Content
SEND FEEDBACK

Daily
Averages
Monthly
Summary
United States of America

NEW YORK - CENTRAL PARK, NEW YORK


Home > North America > United States > New York
Elevation: 14 feet     Latitude: 40 47N     Longitude: 073 58W

WEATHER
 
SELECT A DAY
Number of Records: 148,440;   Date Range: 11/1/95 - 9/22/14
 
SHARE

PRINT THIS DATA

[ ← Previous Day ]
WEATHER ALMANAC - JANUARY 20, 2013
[ Next Day → ]
[ °C ]   °F
Weather ElementAverageHighLow
Temperature42.8 °F53.1 °F (12:51 pm)30 °F (11:51 pm)
Dewpoint19.9 °F28 °F (2:51 am)8.1 °F (11:51 pm)
Humidity42.1 %63 % (3:51 am)19 % (3:51 pm)
Barometer29.82 in30.04 in (11:51 pm)29.69 in (12:51 pm)
Wind Speed10.9 mph18.4 mph (3:51 pm)
Wind Gust35.7 mph (2:51 pm)
Weather ElementAverage
Visibility10 mi
Wind DirectionWSW (247.8 °)

Weather ElementTotal
Precipitation---
Heating Degree Days23.5 (Base 65)
Averaged from 23 records on January 20, 2013
WEATHER CONDITIONS BREAKOUT
WIND DIRECTION BREAKOUT
WEATHER BY HOUR - JANUARY 20, 2013
[ °C ]   °F
Local TimeTemperatureDewpointHumidityBarometerVisibilityWind DirectionWind SpeedGust SpeedPrecipitationEventsConditions
1:51 AM42.1 °F27.0 °F55 %29.85 in10.0 miWSW (240°)10.4 mph23.0 mphClear
2:51 AM42.1 °F28.0 °F58 %29.85 in10.0 miWSW (250°)10.4 mph19.6 mphClear
3:51 AM39.9 °F28.0 °F63 %29.83 in10.0 miVariable5.8 mphClear
4:51 AM41.0 °F28.0 °F60 %29.78 in10.0 miWSW (240°)13.8 mph25.3 mphClear
5:51 AM41.0 °F27.0 °F57 %29.76 in10.0 miWSW (240°)10.4 mph21.9 mphClear
6:51 AM41.0 °F27.0 °F57 %29.75 in10.0 miSW (230°)12.7 mph23.0 mphClear
7:51 AM42.1 °F27.0 °F55 %29.74 in10.0 miSW (230°)9.2 mph19.6 mphClear
8:51 AM43.0 °F27.0 °F53 %29.75 in10.0 miWSW (250°)11.5 mphClear
9:51 AM46.9 °F27.0 °F46 %29.75 in10.0 miVariable5.8 mphClear
10:51 AM50.0 °F27.0 °F41 %29.73 in10.0 miWSW (240°)10.4 mphClear
11:51 AM52.0 °F26.1 °F37 %29.70 in10.0 miWest (260°)15.0 mph28.8 mphClear
12:51 PM53.1 °F24.1 °F32 %29.69 in10.0 miWest (260°)9.2 mph25.3 mphClear
1:51 PM51.1 °F21.0 °F31 %29.70 in10.0 miWNW (290°)11.5 mph31.1 mphClear
2:51 PM51.1 °F15.1 °F24 %29.73 in10.0 miWest (280°)15.0 mph35.7 mphClear
3:51 PM50.0 °F9.0 °F19 %29.77 in10.0 miWest (280°)18.4 mph35.7 mphClear
4:51 PM46.9 °F10.0 °F22 %29.81 in10.0 miWNW (290°)15.0 mph27.6 mphClear
5:51 PM45.0 °F10.0 °F24 %29.86 in10.0 miWNW (290°)10.4 mph24.2 mphClear
6:51 PM41.0 °F16.0 °F36 %29.91 in10.0 miWNW (300°)8.1 mph18.4 mphClear
7:51 PM37.0 °F12.9 °F37 %29.95 in10.0 miWNW (300°)8.1 mph19.6 mphClear
8:51 PM35.1 °F12.0 °F39 %29.98 in10.0 miWNW (300°)12.7 mph26.5 mphClear
9:51 PM33.1 °F10.9 °F40 %30.00 in10.0 miNW (310°)6.9 mphClear
10:51 PM30.9 °F10.0 °F42 %30.01 in10.0 miNW (310°)10.4 mph20.7 mphClear
11:51 PM30.0 °F8.1 °F40 %30.04 in10.0 miNW (310°)9.2 mph19.6 mphClear
Hourly data recorded from KNYC, located miles away from New York - Central Park, New York







STORIES FROM OUR PARTNERS